Simultaneous Nadir Overpasses (SNOs) Predictions

Prediction of SNOs between GOES-14 and NOAA-20 Satellite Orbit:

Table of predicted SNOs for the next 14.0 days since TLE Epoch: 10/8/2025
Index Date Time (GOES-14) GOES-14 Lat,Lon NOAA-20 Lat,Lon Distance(km) Time Diff (sec)
1 10/09/2025 20:20:25 0.80,-108.44 1.68,-104.52 446.27 80
2 10/11/2025 08:44:49 -0.71,-108.46 -0.40,-109.76 148.16 80
3 10/12/2025 08:23:25 -0.76,-108.46 -1.50,-105.24 367.38 80
4 10/13/2025 20:47:57 0.67,-108.43 0.22,-110.51 235.97 80
5 10/14/2025 20:26:32 0.73,-108.44 1.27,-105.97 280.41 80
6 10/16/2025 08:50:56 -0.63,-108.48 0.01,-111.21 312.27 80
7 10/17/2025 08:29:31 -0.69,-108.48 -1.10,-106.69 203.68 80
8 10/18/2025 20:54:03 0.59,-108.45 -0.23,-111.95 399.54 80
9 10/19/2025 20:32:38 0.65,-108.46 0.88,-107.43 117.25 80
10 10/21/2025 08:57:03 -0.53,-108.51 0.38,-112.67 473.68 80
11 10/22/2025 08:35:37 -0.60,-108.51 -0.67,-108.14 42.24 80
